[Iaude] MPEC R170: 2023 RG6 [a=1.52,e=0.27,i=27.9,H=24.0]
    mpec at marsden.cfa.harvard.edu 
    mpec at marsden.cfa.harvard.edu
       
    Wed Sep 13 07:33:06 EDT 2023
    
    
  
M.P.E.C. 2023-R170                           Issued 2023 September 13, 11:31 UT
     The Minor Planet Electronic Circulars contain information on unusual
         minor planets, routine data on comets and natural satellites,
         and occasional editorial announcements.  They are published
    on behalf of Division F of the International Astronomical Union by the
          Minor Planet Center, Smithsonian Astrophysical Observatory,
                          Cambridge, MA 02138, U.S.A.
			  
             Prepared using the Tamkin Foundation Computer Network
                              MPC at CFA.HARVARD.EDU
            URL https://www.minorplanetcenter.net/    ISSN 1523-6714
                                    2023 RG6                                    
Observations:
     K23R06G* C2023 09 11.33406022 44 56.125+04 03 39.88         21.36wXER170F52
     K23R06G  C2023 09 11.35593322 44 47.061+04 06 44.42         21.09wXER170F52
     K23R06G  C2023 09 11.36690622 44 42.532+04 08 16.79         21.58wXER170F52
     K23R06G  C2023 09 11.47388822 43 58.120+04 23 16.77         21.54GVER170F52
     K23R06G  C2023 09 11.47452322 43 57.827+04 23 22.60         21.01GVER170F52
     K23R06G  C2023 09 11.52352622 43 37.637+04 30 14.29         21.05GVER170F51
     K23R06G  C2023 09 11.52416722 43 37.368+04 30 19.78         21.29GVER170F51
     K23R06G KC2023 09 11.52502822 43 38.83 +04 31 21.2          20.6 GVER170474
     K23R06G KC2023 09 11.52982022 43 36.83 +04 32 00.4          21.0 GVER170474
     K23R06G KC2023 09 11.53702522 43 33.83 +04 33 01.3          21.5 GVER170474
     K23R06G 1C2023 09 11.99023 22 40 33.88 +05 35 24.7          20.7 VXER170033
     K23R06G 1C2023 09 11.99179 22 40 33.23 +05 35 37.8          20.8 VXER170033
     K23R06G 1C2023 09 11.99334 22 40 32.59 +05 35 50.9          20.8 VXER170033
     K23R06G 1C2023 09 11.99490 22 40 31.95 +05 36 04.0          20.7 VXER170033
     K23R06G KC2023 09 13.13286022 32 59.26 +08 15 48.3          21.6 VuER170H21
     K23R06G KC2023 09 13.13845422 32 56.92 +08 16 35.8          21.6 VuER170H21
     K23R06G KC2023 09 13.14404822 32 54.60 +08 17 22.3          21.6 VuER170H21
     K23R06G KC2023 09 13.15020422 32 52.05 +08 18 15.0          21.5 VuER170H21
Observer details:
033 Karl Schwarzschild Observatory, Tautenburg.  Observers S. Melnikov, C.
    Hoegner, F. Ludwig, M. Hartmann, B. Stecklum.  Measurer B. Stecklum.
    1.34-m f/3 Schmidt + CCD.
474 Mount John Observatory, Lake Tekapo.  Observers A. C. Gilmore, P. M.
    Kilmartin.  Measurer P. M. Kilmartin.  1.0-m f/7.7 reflector + CCD.
F51 Pan-STARRS 1, Haleakala.  Observers J. Bulger, K. Chambers, T. Dukes, T.
    Lowe, P. Minguez, A. Schultz, I. Smith.  Measurers S. Chastel, J.
    Fairlamb, M. Huber, Y. Ramanjooloo, R. Wainscoat, R. Weryk.  1.8-m
    Ritchey-Chretien + CCD.
F52 Pan-STARRS 2, Haleakala.  Observers J. Bulger, T. Lowe, P. Minguez, A.
    Schultz, I. Smith, K. Chambers, T. Dukes.  Measurers K. Chambers, T. de
    Boer, J. Bulger, J. Fairlamb, H. Gao, M. Huber, C.-C. Lin, T. Lowe, E.
    Magnier, P. Minguez, Y. Ramanjooloo, A. Schultz, I. Smith, R. Wainscoat,
    R. Weryk, S. Chastel.  1.8-m Ritchey-Chretien + CCD.
H21 Astronomical Research Observatory, Westfield.  Observer R. Holmes.
    Measurers T. Linder, R. Holmes, L. Horn.  0.76-m f/3.0 astrograph + CCD.
Orbital elements:
2023 RG6                                                 Earth MOID = 0.1694 AU
Epoch 2023 Sept. 13.0 TT = JDT 2460200.5                Veres                   
M 336.48569              (2000.0)            P               Q                  
n   0.52638971     Peri.   45.76719     +0.84199486     -0.52471310             
a   1.5191400      Node   344.43312     +0.25498703     +0.59188321             
e   0.2692888      Incl.   27.85353     +0.47542220     +0.61184184             
P   1.87           H   24.09          G   0.15           U   9                  
Residuals in seconds of arc
230911 F52  0.3-  0.1+    230911 F51  0.0   0.0     230911 033  0.3-  0.1-
230911 F52  0.5-  0.3+    230911 474  0.5+  0.7+    230911 033  0.3-  0.1-
230911 F52  0.3-  0.3+    230911 474  0.1+  0.4-    230913 H21  0.0   0.3-
230911 F52  0.0   0.2-    230911 474  0.4-  0.2-    230913 H21  0.2-  0.1+
230911 F52  0.5-  0.2+    230911 033  0.1-  0.1-    230913 H21  0.0   0.4-
230911 F51  0.1+  0.1-    230911 033  0.3-  0.2-    230913 H21  0.2+  0.6+
Ephemeris:
2023 RG6                 a,e,i = 1.52, 0.27, 28                  q = 1.1101
Date    TT    R. A. (2000) Decl.     Delta      r    Elong.  Phase     V
2023 08 14    00 42 22.0 -34 14 24   0.3327  1.2637   133.0    35.9    23.7
...
2023 08 29    23 59 29.4 -21 31 31   0.2206  1.2135   155.0    20.6    22.2
...
2023 09 06    23 18 26.0 -07 51 29   0.1821  1.1896   174.5     4.7    21.2
...
2023 09 12    22 40 31.0 +05 37 17   0.1708  1.1733   166.2    11.8    21.3
2023 09 13    22 33 51.7 +07 57 34   0.1707  1.1707   163.0    14.6    21.4
2023 09 14    22 27 09.9 +10 16 52   0.1710  1.1682   159.8    17.3    21.5
...
2023 09 20    21 47 27.1 +23 03 44   0.1827  1.1539   142.0    32.4    22.1
...
2023 09 28    21 01 01.3 +35 11 28   0.2175  1.1377   123.8    47.0    22.8
...
2023 10 13    20 05 21.1 +46 17 51   0.3071  1.1170   104.9    59.7    23.9
M. P. C. Staff               (C) Copyright 2023 MPC           M.P.E.C. 2023-R170
    
    
More information about the Iaude
mailing list